Location: Cazeneuve
(43.8862°N, 0.1616°E)
Time: 19:33:32
(UTC+00:00)

Daily predictions for brighter satellites

Satellite Brightness Start Highest point End
(mag) Time Altitude Azimuth Time Altitude Azimuth Time Altitude Azimuth
Cosmos 1953 Rocket 4.2 17:20:58 10° N 17:25:00 34° ENE 17:29:03 10° SE
ATLAS 5 CENTAUR R/B 4.0 17:22:23 10° WNW 17:25:07 16° NNW 17:28:05 10° N
Cosmos 2058 Rocket 4.2 17:22:19 10° SE 17:25:53 24° E 17:29:28 10° NE
YAOGAN 6 3.2 17:24:33 10° S 17:28:09 64° W 17:31:50 10° NNW
CZ-4 R/B 2.9 17:25:59 10° ESE 17:28:24 16° ENE 17:30:48 10° NNE
CZ-4B R/B 3.5 17:23:22 10° SSE 17:29:00 81° WSW 17:34:34 10° NNW
Cosmos 1400 Rocket 4.0 17:26:02 10° SE 17:29:18 23° E 17:32:33 10° NE
Lacrosse 5 3.7 17:26:00 10° WNW 17:29:56 22° NNW 17:33:53 10° NE
GENESIS II 4.3 17:26:14 10° SSW 17:30:13 69° ESE 17:34:15 10° NE
ADEOS Rocket 3.8 17:27:59 10° N 17:34:17 65° WNW 17:41:17 10° SSW
USA 281 3.5 17:30:58 10° SSE 17:37:31 78° WSW 17:44:07 10° NNW
Cosmos 1908 4.3 17:34:50 10° SSW 17:38:33 50° WNW 17:42:20 10° N
Cosmos 1656 4.5 17:35:48 10° SSE 17:40:31 30° ESE 17:45:19 10° NE
FALCON 9 DEB 3.1 17:38:53 10° SW 17:42:03 59° SE 17:44:56 12° ENE
Cosmos 292 Rocket 3.8 17:38:48 10° S 17:43:31 61° ESE 17:48:17 10° NNE
Cosmos 2227 Rocket 3.0 17:38:51 10° N 17:43:51 31° NE 17:48:50 10° ESE
Cosmos 1892 4.0 17:44:08 10° NNE 17:47:06 20° ENE 17:50:03 10° ESE
FALCON 9 DEB 2.9 17:44:13 10° SW 17:47:24 71° SE 17:50:05 14° ENE
USA 305 4.4 17:44:40 10° NW 17:48:13 24° NNE 17:51:11 13° ENE
CZ-4B R/B 1.5 17:45:52 10° N 17:49:06 73° WNW 17:52:13 10° SSW
COSMO-SKYMED 1 2.8 17:46:58 10° NNE 17:51:12 49° E 17:55:24 10° S
SL-4 R/B 3.3 17:49:46 10° WNW 17:52:41 24° N 17:55:22 12° NE
SMAP 4.2 17:49:56 10° S 17:54:24 48° W 17:58:56 10° NNW
USA 306 4.3 17:51:03 10° NW 17:54:37 25° NNE 17:57:16 14° ENE
H-2A R/B 4.1 17:51:08 10° N 17:54:42 28° WNW 17:58:12 10° SW
Timation 2 Rocket 4.1 17:50:28 10° NNW 17:57:05 73° ENE 18:03:54 10° SSE
H-2A R/B 3.1 17:52:45 10° ESE 17:57:07 26° ENE 18:01:32 10° N
Cosmos 1300 2.6 17:53:46 10° S 17:57:34 83° E 18:01:25 10° N
CZ-2D R/B 3.6 17:54:23 10° SE 17:57:59 42° ENE 18:01:36 10° N
Cosmos 1346 Rocket 4.1 17:55:03 10° NNE 17:58:05 20° ENE 17:59:45 16° ESE
FALCON 9 DEB 2.9 17:54:51 10° SW 17:58:06 84° SE 18:00:24 18° ENE
Cosmos 1315 Rocket 4.4 17:56:43 10° SE 17:58:40 16° E 17:58:40 16° E
Okean O Rocket 3.1 17:55:28 10° S 17:59:35 40° W 18:03:43 10° NNW
Cosmos 1697 Rocket 3.7 17:56:36 10° SSE 18:00:54 23° ESE 18:04:15 14° ENE
Cosmos 1408 4.0 17:58:47 10° NNE 18:01:19 18° ENE 18:01:19 18° ENE
Cosmos 1825 Rocket 4.1 17:58:03 10° NNW 18:02:28 63° W 18:06:49 10° S
YAOGAN 1 3.1 18:01:32 10° SE 18:05:28 36° ENE 18:09:26 10° N
FALCON 9 DEB 3.1 18:07:33 10° WSW 18:10:45 71° NNW 18:12:34 23° NE
Cosmos 1825 4.3 18:08:32 10° NNE 18:09:07 12° NE 18:09:07 12° NE
IRS-1C Rocket 4.1 18:07:42 10° SSE 18:12:58 88° ENE 18:18:16 10° NNW
Meteor 2-8 Rocket 4.4 18:07:15 10° S 18:13:17 68° E 18:19:23 10° NNE
Cosmos 1726 Rocket 4.1 18:12:48 10° SSW 18:17:05 62° W 18:21:27 10° N
Cosmos 1553 Rocket 4.0 18:12:26 10° S 18:18:43 63° E 18:24:55 10° NNE
ERS-2 4.3 18:18:12 10° N 18:21:20 27° WNW 18:24:27 10° SW
Cosmos 1689 Rocket 2.4 18:18:43 10° N 18:21:36 65° WNW 18:24:26 10° SSW
Cosmos 1980 Rocket 3.8 18:19:27 10° SE 18:21:05 15° SE 18:21:05 15° SE
Cosmos 2297 Rocket 2.1 18:18:30 10° NNW 18:24:11 72° ENE 18:29:50 10° SSE
Cosmos 1340 2.5 18:20:44 10° N 18:24:32 82° E 18:28:18 10° SSE
In-Cosmos 22 Rocket 4.0 18:21:48 10° N 18:27:11 79° E 18:32:39 10° SSE
SeaSat 1 3.2 18:29:14 29° ENE 18:30:18 32° NE 18:34:40 10° N
CSL-04 Debris 4.3 18:25:14 10° SE 18:30:28 51° ENE 18:35:45 10° N
Okean-O 2.5 18:26:46 10° SSE 18:31:12 86° ENE 18:35:39 10° NNW
NOSS 3-3 (A) 4.1 18:28:15 10° S 18:33:39 46° ESE 18:36:53 25° ENE
NOSS 3-3 (C) 4.1 18:28:20 10° S 18:33:47 46° ESE 18:37:00 25° ENE
USA 307 3.8 18:33:35 10° NW 18:37:30 33° NNE 18:38:09 32° NE
USA 215 4.1 18:36:03 23° ENE 18:39:04 34° NNE 18:44:50 10° NW
SKYMED 2 4.5 18:35:03 10° N 18:39:16 50° WNW 18:43:27 10° SSW
Cosmos 1939 Rocket 4.2 18:37:20 10° S 18:41:07 40° W 18:44:51 10° NNW
USA 308 3.7 18:38:22 10° NW 18:42:20 35° NNE 18:42:46 34° NE
Helios 1A Rocket 3.5 18:39:23 10° S 18:43:26 59° WSW 18:47:31 10° NNW
CRYOSAT 2 4.3 18:38:47 10° NNE 18:43:36 59° E 18:48:23 10° S
SL-08 R/B 4.5 18:37:53 10° N 18:44:06 84° W 18:50:12 10° S
Cosmos 968 Rocket 3.3 18:40:11 10° NNW 18:45:27 79° ENE 18:49:24 17° SSE
Cosmos 1745 Rocket 3.9 18:39:31 10° N 18:45:50 73° E 18:52:10 10° SSE
Cosmos 1455 2.9 18:42:57 10° S 18:45:23 36° SSE 18:45:23 36° SSE
ATLAS 2AS CENTAUR R/B 3.8 18:40:21 10° NNW 18:46:42 27° NNE 18:48:35 25° NE
Meteor 2-15 4.3 18:41:30 10° S 18:47:38 82° E 18:53:47 10° N
Cosmos 2219 3.6 18:47:11 10° NNW 18:52:53 65° WSW 18:58:33 10° S
SJ-11-01 4.1 18:51:59 22° SSE 18:55:00 78° ENE 18:59:42 10° N
CZ-4C R/B 4.2 18:50:41 10° NNW 18:55:34 20° NNE 18:57:04 19° NE
CZ-2C R/B 3.4 18:51:34 10° S 18:57:23 76° WSW 19:03:05 10° NNW
Cosmos 220 Rocket 3.9 18:54:20 10° SSW 18:58:40 84° ESE 18:59:40 53° NNE
MOS 1 Rocket 3.2 18:54:39 10° NNE 18:59:21 83° ESE 19:04:19 10° S
Cosmos 1486 Rocket 4.2 18:56:01 10° NNW 19:01:22 74° WSW 19:05:50 15° S
Cosmos 1386 Rocket 4.5 18:54:58 10° N 19:01:26 90° E 19:07:46 10° S
Cosmos 2082 3.6 18:56:38 10° NNW 19:02:22 68° ENE 19:03:45 50° ESE
CZ-4 R/B 2.5 18:59:24 10° S 19:03:07 42° W 19:06:48 10° NNW
Cosmos 2058 3.0 19:00:23 10° NNW 19:04:29 72° W 19:06:04 35° S
Meteor 2-10 Rocket 3.7 19:02:22 10° SSW 19:07:42 72° WNW 19:12:52 10° N
Cosmos 1503 Rocket 3.8 19:05:46 10° NNW 19:11:00 78° ENE 19:11:33 69° SE
Cosmos 2369 3.5 19:07:45 10° SSW 19:13:27 77° ESE 19:14:50 53° NE
Lacrosse 5 3.7 19:10:53 10° NW 19:14:30 19° N 19:14:46 19° NNE
ARGOS 3.0 19:13:21 46° SSE 19:15:02 84° ENE 19:20:30 10° NNW
BREEZE-M R/B 4.2 19:10:52 10° WNW 19:15:23 60° NNE 19:16:54 49° ENE
Cosmos 1709 Rocket 3.9 19:09:22 10° N 19:15:46 71° E 19:17:52 44° SSE
Timation 1 Rocket 4.4 19:10:28 10° NNW 19:16:23 59° ENE 19:16:23 59° ENE
Cosmos 1354 Rocket 3.9 19:16:39 10° NNW 19:21:46 82° NNE 19:21:46 82° NNE
Atlas Centaur 2 4.0 19:15:14 10° SW 19:22:22 30° S 19:23:51 29° SSE
Cosmos 2227 Rocket 3.2 19:22:42 10° NW 19:28:03 44° WSW 19:32:21 15° S
Milstar 3 4.2 19:23:46 10° SW 19:28:51 23° S 19:29:44 22° S
USA 305 4.2 19:24:36 10° NW 19:27:21 37° NW 19:27:21 37° NW
Cosmos 883 Rocket 4.4 19:24:08 10° S 19:30:19 84° W 19:36:29 10° N
GEOS 3 Rocket 3.9 19:29:48 56° S 19:30:38 65° SW 19:36:00 10° NW
Cosmos 2315 Rocket 3.8 19:24:57 10° S 19:31:09 82° E 19:37:23 10° N
CSL-04 Rocket 4.4 19:26:05 10° S 19:31:30 53° W 19:36:55 10° NNW
SL-4 R/B 4.1 19:29:34 10° NW 19:30:57 20° NW 19:30:57 20° NW
USA 306 4.4 19:30:57 10° NW 19:33:25 33° NW 19:33:25 33° NW
Cosmos 1315 Rocket 4.5 19:31:50 10° SW 19:34:30 31° WSW 19:34:30 31° WSW
Cosmos 2263 Rocket 3.6 19:30:35 10° NNW 19:33:26 26° N 19:33:26 26° N
H-2A R/B 3.0 19:31:02 10° S 19:36:13 48° W 19:41:31 10° NNW
Cosmos 1697 Rocket 3.3 19:38:59 10° SW 19:44:27 54° WNW 19:46:04 40° N
Cosmos 1980 Rocket 4.0 20:01:01 10° SW 20:02:58 22° SW 20:02:58 22° SW
SeaSat 1 4.0 20:09:02 33° WNW 20:09:02 33° WNW 20:12:20 10° NW
NOSS 3-4 (A) 4.2 20:09:28 10° NW 20:14:46 55° NNW 20:14:46 55° NNW
NOSS 3-4 (C) 4.2 20:09:34 10° NW 20:14:51 55° NNW 20:14:51 55° NNW
USA 215 3.9 20:23:25 48° NNW 20:23:25 48° NNW 20:28:00 10° NW
ATLAS 2AS CENTAUR R/B 3.7 20:31:17 10° NW 20:36:01 42° NNW 20:36:01 42° NNW
CZ-4C R/B 4.1 20:38:40 10° NNW 20:42:14 32° NNW 20:42:14 32° NNW
